When you browse on this site, cookies collect data to enhance your experience and personalize the content and advertising you see.
Visit our Privacy Policy to learn more. By continuing to use the site, you agree to this use of cookies and data.
  • Em Portugal
  • Lista de países
  • Para 7 dias
  • Temperatura da água
  • Mapas de satélite
  • Mapa do tempo
  • Widgets de tempo
  • user-avatar
    Iniciar Sessão

    Previsão horária em Kalinkino

    Hoje, 18 Fevereiro, Segunda-feira

    Tempo Temperatura Precipitação Vento Pressão Humidade
    00:00 -4°C° 0 mm 3 m/s 758 mmHg 86%
    01:00 -4°C° 0 mm 2 m/s 759 mmHg 87%
    02:00 -5°C° 0 mm 2 m/s 759 mmHg 92%
    03:00 -5°C° 0 mm 2 m/s 760 mmHg 93%
    04:00 -4°C° 0 mm 1 m/s 760 mmHg 93%
    05:00 -4°C° 0 mm 1 m/s 760 mmHg 93%
    06:00 -4°C° 0 mm 1 m/s 761 mmHg 93%
    07:00 -4°C° 0 mm 1 m/s 761 mmHg 92%
    08:00 -4°C° 0 mm 1 m/s 761 mmHg 89%
    09:00 -3°C° 0 mm 1 m/s 762 mmHg 83%
    10:00 -2°C° 0 mm 1 m/s 762 mmHg 77%
    11:00 -1°C° 0 mm 0 m/s 762 mmHg 71%
    12:00 0°C° 0 mm 1 m/s 762 mmHg 69%
    13:00 +1°C° 0 mm 1 m/s 761 mmHg 66%
    14:00 +1°C° 0 mm 1 m/s 761 mmHg 64%
    15:00 -2°C° 0 mm 2 m/s 761 mmHg 69%
    16:00 -2°C° 0 mm 2 m/s 760 mmHg 74%
    17:00 -3°C° 0 mm 2 m/s 760 mmHg 79%
    18:00 -3°C° 0 mm 2 m/s 760 mmHg 77%
    19:00 -4°C° 0 mm 3 m/s 759 mmHg 74%
    20:00 -4°C° 0 mm 3 m/s 759 mmHg 72%
    21:00 -4°C° 0 mm 4 m/s 758 mmHg 73%
    22:00 -4°C° 0 mm 4 m/s 758 mmHg 73%
    23:00 -4°C° 0 mm 4 m/s 757 mmHg 74%

    Amanhã, 19 Fevereiro, Terça-feira

    Tempo Temperatura Precipitação Vento Pressão Humidade
    00:00 -4°C° 0 mm 5 m/s 757 mmHg 76%
    01:00 -4°C° 0 mm 5 m/s 756 mmHg 79%
    02:00 -4°C° 0 mm 5 m/s 756 mmHg 82%
    03:00 -4°C° 0 mm 5 m/s 755 mmHg 84%
    04:00 -2°C° 0 mm 5 m/s 754 mmHg 86%
    05:00 -2°C° 0 mm 5 m/s 754 mmHg 88%
    06:00 -2°C° 0 mm 5 m/s 753 mmHg 88%
    07:00 -1°C° 0 mm 5 m/s 753 mmHg 89%
    08:00 -1°C° 0 mm 5 m/s 752 mmHg 89%
    09:00 -1°C° 0 mm 5 m/s 752 mmHg 89%
    10:00 0°C° 0 mm 5 m/s 751 mmHg 89%
    11:00 0°C° 0 mm 5 m/s 751 mmHg 89%
    12:00 0°C° 0 mm 5 m/s 750 mmHg 89%
    13:00 0°C° 0 mm 5 m/s 750 mmHg 89%
    14:00 0°C° 0 mm 5 m/s 749 mmHg 88%
    15:00 0°C° 0 mm 4 m/s 748 mmHg 88%
    16:00 0°C° 0 mm 4 m/s 748 mmHg 88%
    17:00 0°C° 0 mm 4 m/s 747 mmHg 88%
    18:00 0°C° 0 mm 4 m/s 746 mmHg 88%
    19:00 0°C° 0 mm 5 m/s 746 mmHg 89%
    20:00 0°C° 0 mm 5 m/s 745 mmHg 89%
    21:00 0°C° 0.1 mm 5 m/s 744 mmHg 88%
    22:00 0°C° 0.1 mm 5 m/s 743 mmHg 88%
    23:00 0°C° 0.1 mm 5 m/s 743 mmHg 88%

    Depois de amanhã, 20 Fevereiro, Quarta-feira

    Tempo Temperatura Precipitação Vento Pressão Humidade
    00:00 +1°C° 0.3 mm 5 m/s 743 mmHg 89%
    01:00 +1°C° 0.3 mm 4 m/s 743 mmHg 90%
    02:00 +1°C° 0.3 mm 4 m/s 743 mmHg 91%
    03:00 +1°C° 0.1 mm 4 m/s 743 mmHg 91%
    04:00 +1°C° 0.1 mm 4 m/s 743 mmHg 91%
    05:00 +1°C° 0.1 mm 4 m/s 742 mmHg 92%
    06:00 +1°C° 0.2 mm 4 m/s 742 mmHg 91%
    07:00 +1°C° 0.2 mm 4 m/s 742 mmHg 91%
    08:00 +1°C° 0.2 mm 4 m/s 742 mmHg 90%
    09:00 +1°C° 0.1 mm 4 m/s 742 mmHg 88%
    10:00 +1°C° 0.1 mm 5 m/s 742 mmHg 86%
    11:00 +1°C° 0.1 mm 5 m/s 742 mmHg 85%
    12:00 +1°C° 0.1 mm 5 m/s 742 mmHg 85%
    13:00 +1°C° 0.1 mm 5 m/s 742 mmHg 84%
    14:00 +1°C° 0.1 mm 5 m/s 742 mmHg 84%
    15:00 +1°C° 0.2 mm 5 m/s 742 mmHg 84%
    16:00 0°C° 0.2 mm 5 m/s 742 mmHg 83%
    17:00 0°C° 0.2 mm 5 m/s 742 mmHg 83%
    18:00 -1°C° 0.1 mm 5 m/s 743 mmHg 81%
    19:00 -2°C° 0.1 mm 6 m/s 743 mmHg 79%
    20:00 -3°C° 0.1 mm 6 m/s 744 mmHg 78%
    21:00 -3°C° 0.1 mm 6 m/s 745 mmHg 78%
    22:00 -4°C° 0.1 mm 6 m/s 745 mmHg 78%
    23:00 -4°C° 0.1 mm 6 m/s 746 mmHg 78%

    21 Fevereiro, Quinta-feira

    Tempo Temperatura Precipitação Vento Pressão Humidade
    00:00 -4°C° 0 mm 6 m/s 747 mmHg 77%
    01:00 -5°C° 0 mm 6 m/s 747 mmHg 76%
    02:00 -5°C° 0 mm 6 m/s 748 mmHg 75%
    03:00 -5°C° 0.1 mm 6 m/s 749 mmHg 73%
    04:00 -6°C° 0.1 mm 6 m/s 749 mmHg 70%
    05:00 -6°C° 0.1 mm 6 m/s 750 mmHg 68%
    06:00 -8°C° 0 mm 6 m/s 751 mmHg 67%
    07:00 -7°C° 0 mm 5 m/s 752 mmHg 67%
    08:00 -8°C° 0 mm 5 m/s 753 mmHg 67%
    09:00 -8°C° 0 mm 5 m/s 753 mmHg 64%
    10:00 -8°C° 0 mm 5 m/s 754 mmHg 62%
    11:00 -7°C° 0 mm 4 m/s 755 mmHg 60%
    12:00 -7°C° 0 mm 4 m/s 755 mmHg 60%
    13:00 -7°C° 0 mm 4 m/s 756 mmHg 59%
    14:00 -7°C° 0 mm 4 m/s 757 mmHg 58%
    15:00 -7°C° 0 mm 4 m/s 757 mmHg 59%
    16:00 -8°C° 0 mm 4 m/s 758 mmHg 61%
    17:00 -8°C° 0 mm 4 m/s 759 mmHg 62%
    18:00 -8°C° 0 mm 4 m/s 760 mmHg 63%
    19:00 -9°C° 0 mm 4 m/s 760 mmHg 64%
    20:00 -9°C° 0 mm 4 m/s 761 mmHg 65%
    21:00 -9°C° 0 mm 3 m/s 762 mmHg 66%
    22:00 -9°C° 0 mm 3 m/s 763 mmHg 68%
    23:00 -9°C° 0 mm 3 m/s 763 mmHg 69%

    22 Fevereiro, Sexta-feira

    Tempo Temperatura Precipitação Vento Pressão Humidade
    00:00 -8°C° 0 mm 2 m/s 764 mmHg 70%
    01:00 -8°C° 0 mm 2 m/s 765 mmHg 71%
    02:00 -9°C° 0 mm 2 m/s 766 mmHg 73%
    03:00 -9°C° 0 mm 2 m/s 766 mmHg 72%
    04:00 -9°C° 0 mm 2 m/s 767 mmHg 71%
    05:00 -10°C° 0 mm 3 m/s 768 mmHg 71%
    06:00 -9°C° 0 mm 2 m/s 768 mmHg 71%
    07:00 -9°C° 0 mm 2 m/s 769 mmHg 72%
    08:00 -9°C° 0 mm 2 m/s 770 mmHg 72%
    09:00 -8°C° 0 mm 2 m/s 770 mmHg 67%
    10:00 -7°C° 0 mm 2 m/s 771 mmHg 62%
    11:00 -5°C° 0 mm 2 m/s 771 mmHg 57%
    12:00 -6°C° 0 mm 3 m/s 771 mmHg 55%
    13:00 -5°C° 0 mm 3 m/s 771 mmHg 53%
    14:00 -4°C° 0 mm 3 m/s 771 mmHg 51%
    15:00 -5°C° 0 mm 3 m/s 771 mmHg 54%
    16:00 -6°C° 0 mm 3 m/s 772 mmHg 57%
    17:00 -6°C° 0 mm 3 m/s 772 mmHg 60%
    18:00 -6°C° 0 mm 2 m/s 772 mmHg 64%
    19:00 -6°C° 0 mm 2 m/s 772 mmHg 69%
    20:00 -6°C° 0 mm 1 m/s 772 mmHg 73%
    21:00 -6°C° 0 mm 1 m/s 772 mmHg 75%
    22:00 -6°C° 0 mm 1 m/s 772 mmHg 76%
    23:00 -7°C° 0 mm 1 m/s 771 mmHg 77%

    23 Fevereiro, Sábado

    Tempo Temperatura Precipitação Vento Pressão Humidade
    00:00 -6°C° 0 mm 1 m/s 771 mmHg 77%
    01:00 -6°C° 0 mm 1 m/s 770 mmHg 76%
    02:00 -7°C° 0 mm 2 m/s 770 mmHg 76%
    03:00 -7°C° 0 mm 2 m/s 769 mmHg 71%
    04:00 -7°C° 0 mm 3 m/s 768 mmHg 67%
    05:00 -7°C° 0 mm 3 m/s 767 mmHg 63%
    06:00 -7°C° 0.9 mm 3 m/s 766 mmHg 72%
    07:00 -7°C° 0.9 mm 3 m/s 765 mmHg 82%
    08:00 -8°C° 0.9 mm 4 m/s 764 mmHg 91%
    09:00 -8°C° 0.3 mm 4 m/s 763 mmHg 90%
    10:00 -7°C° 0.3 mm 4 m/s 762 mmHg 89%
    11:00 -5°C° 0.3 mm 4 m/s 761 mmHg 88%
    12:00 -5°C° 1 mm 4 m/s 761 mmHg 90%
    13:00 -5°C° 1 mm 3 m/s 760 mmHg 92%
    14:00 -4°C° 1 mm 3 m/s 759 mmHg 94%
    15:00 -3°C° 0.1 mm 2 m/s 759 mmHg 94%
    16:00 -2°C° 0.1 mm 2 m/s 759 mmHg 95%
    17:00 -2°C° 0.1 mm 2 m/s 759 mmHg 95%
    18:00 -1°C° 0 mm 2 m/s 759 mmHg 96%
    19:00 -1°C° 0 mm 2 m/s 760 mmHg 97%
    20:00 +1°C° 0 mm 2 m/s 760 mmHg 97%
    21:00 +1°C° 0 mm 2 m/s 760 mmHg 97%
    22:00 +1°C° 0 mm 2 m/s 760 mmHg 97%
    23:00 +2°C° 0 mm 1 m/s 760 mmHg 98%
    Mostrar mais